Flag for U.S.A. Weather past 2 weeks in San Antonio, Texas, U.S.A.

Now
82 °F

Passing clouds.


Feels Like: 84 °F
Forecast: 74 / 90 °F
Wind: 15 mph from Southeast

Location: San Antonio International Airport

Current Time: Aug 31, 2015 at 11:06:15 PM

Latest Report: Aug 31, 2015 at 9:51 PM


Visibility: 10 mi

Pressure: 29.94 "Hg

Humidity: 58%

Dew point: 66 °F

Location of San AntonioLocation

Historic Weather in San Antonio — Graph

°F

San Antonio temperature yesterday

Maximum temperature yesterday: 93 °F (at 3:51 PM)
Minimum temperature yesterday: 75 °F (at 5:51 AM)
Average temperature yesterday: 83 °F

Past Weeks' High & Low Weather Summary

 TemperatureHumidityPressure
High100 °F (Aug 25, 4:51 PM)90% (Aug 20, 11:51 PM)30.12 "Hg (Aug 20, 11:51 PM)
Low72 °F (Aug 28, 6:51 AM)28% (Aug 31, 4:51 PM)29.67 "Hg (Aug 18, 6:51 PM)
Average85 °F61%29.93 "Hg
* Reported Aug 16 9:51 PM — Aug 31 9:51 PM, San Antonio, Weather by CustomWeather, © 2015

Note: Actual official high and low records may vary slightly from our data, if they occured in-between our weather recording intervals... More about our weather records

Advertising

San Antonio weather history for previous 24 hours

 ConditionsComfort  
Time TempWeatherWind HumidityBarometerVisibility
9:51 PM
Mon, Aug 31
82 °FPassing clouds.15 mph58%29.94 "Hg10 mi
8:51 PM84 °FPassing clouds.17 mph57%29.91 "Hg10 mi
7:51 PM87 °FPassing clouds.17 mph51%29.89 "Hg10 mi
6:51 PM91 °FPassing clouds.17 mph44%29.88 "Hg10 mi
5:51 PM95 °FScattered clouds.9 mph30%29.87 "Hg10 mi
4:51 PM96 °FScattered clouds.6 mph28%29.88 "Hg10 mi
3:51 PM94 °FScattered clouds.9 mph32%29.90 "Hg10 mi
2:51 PM91 °FScattered clouds.8 mph41%29.93 "Hg10 mi
1:51 PM92 °FBroken clouds.3 mph41%29.96 "Hg10 mi
12:51 PM90 °FBroken clouds.9 mph47%29.97 "Hg10 mi
11:51 AM85 °FBroken clouds.6 mph57%29.98 "Hg10 mi
10:51 AM84 °FScattered clouds.6 mph63%29.99 "Hg10 mi
9:51 AM82 °FBroken clouds.9 mph70%29.98 "Hg10 mi
8:51 AM80 °FBroken clouds.6 mph79%29.98 "Hg10 mi
7:51 AM77 °FPartly cloudy.3 mph85%29.96 "Hg10 mi
6:51 AM76 °FPassing clouds.5 mph88%29.94 "Hg10 mi
5:51 AM77 °FPassing clouds.5 mph82%29.93 "Hg10 mi
4:51 AM77 °FPassing clouds.3 mph82%29.93 "Hg10 mi
3:58 AM76 °FPassing clouds.7 mph82%29.99 "Hg10 mi
2:51 AM77 °FPassing clouds.6 mph79%29.93 "Hg10 mi
1:51 AM78 °FPassing clouds.7 mph74%29.94 "Hg10 mi
12:51 AM79 °FPassing clouds.8 mph69%29.93 "Hg10 mi
11:51 PM
Sun, Aug 30
80 °FPassing clouds.10 mph62%29.93 "Hg10 mi
Weather by CustomWeather, © 2015

See weather overviewHow to use our weather pages